Time,TemperatureF,DewpointF,PressureIn,WindDirection,WindDirectionDegrees,WindSpeedMPH,WindSpeedGustMPH,Humidity,HourlyPrecipIn,Conditions,Clouds,dailyrainin,SoftwareType,DateUTC
2013-06-23 00:32:00,70.0,65.0,29.94,SSE,166,5.0,-999.0,85,-99.99,,,-99.99,,2013-06-23 05:32:00,
2013-06-23 00:42:00,70.0,65.0,29.94,SSE,166,3.0,-999.0,85,-99.99,,,-99.99,,2013-06-23 05:42:00,
2013-06-23 00:52:00,69.0,65.0,29.93,SSE,166,1.0,-999.0,86,-99.99,,,-99.99,,2013-06-23 05:52:00,
2013-06-23 01:02:00,69.0,65.0,29.93,SSE,166,1.0,-999.0,86,-99.99,,,-99.99,,2013-06-23 06:02:00,
2013-06-23 01:12:00,69.0,65.0,29.93,SSE,159,3.0,-999.0,87,-99.99,,,-99.99,,2013-06-23 06:12:00,
2013-06-23 01:22:00,69.0,65.0,29.94,SSE,147,2.0,-999.0,87,-99.99,,,-99.99,,2013-06-23 06:22:00,
2013-06-23 01:33:00,69.0,65.0,29.94,SSE,147,2.0,-999.0,87,-99.99,,,-99.99,,2013-06-23 06:33:00,
2013-06-23 01:43:00,69.0,65.0,29.93,SSE,148,4.0,-999.0,87,-99.99,,,-99.99,,2013-06-23 06:43:00,
2013-06-23 01:52:00,69.0,65.0,29.94,SSE,148,3.0,-999.0,88,-99.99,,,-99.99,,2013-06-23 06:52:00,
2013-06-23 02:02:00,69.0,65.0,29.94,SSE,148,3.0,-999.0,88,-99.99,,,-99.99,,2013-06-23 07:02:00,
2013-06-23 02:12:00,68.0,65.0,29.93,South,173,5.0,-999.0,89,-99.99,,,-99.99,,2013-06-23 07:12:00,
2013-06-23 02:22:00,68.0,65.0,29.93,SSE,164,3.0,-999.0,89,-99.99,,,-99.99,,2013-06-23 07:22:00,
2013-06-23 02:34:00,68.0,65.0,29.93,SSE,164,3.0,-999.0,89,-99.99,,,-99.99,,2013-06-23 07:34:00,
2013-06-23 02:43:00,68.0,65.0,29.93,South,174,3.0,-999.0,89,-99.99,,,-99.99,,2013-06-23 07:43:00,
2013-06-23 02:53:00,69.0,65.0,29.93,SE,145,2.0,-999.0,88,-99.99,,,-99.99,,2013-06-23 07:53:00,
2013-06-23 03:02:00,69.0,65.0,29.93,SE,145,2.0,-999.0,88,-99.99,,,-99.99,,2013-06-23 08:02:00,
2013-06-23 03:12:00,69.0,65.0,29.93,SE,130,4.0,-999.0,88,-99.99,,,-99.99,,2013-06-23 08:12:00,
2013-06-23 03:22:00,69.0,65.0,29.93,SE,135,5.0,-999.0,88,-99.99,,,-99.99,,2013-06-23 08:22:00,
2013-06-23 03:34:00,69.0,65.0,29.93,SE,135,5.0,-999.0,88,-99.99,,,-99.99,,2013-06-23 08:34:00,
2013-06-23 03:43:00,69.0,66.0,29.94,SE,135,5.0,-999.0,89,-99.99,,,-99.99,,2013-06-23 08:43:00,
2013-06-23 03:53:00,68.0,65.0,29.94,SSE,168,6.0,-999.0,89,-99.99,,,-99.99,,2013-06-23 08:53:00,
2013-06-23 04:02:00,68.0,65.0,29.94,SSE,168,6.0,-999.0,89,-99.99,,,-99.99,,2013-06-23 09:02:00,
2013-06-23 04:12:00,68.0,65.0,29.94,ESE,116,4.0,-999.0,89,-99.99,,,-99.99,,2013-06-23 09:12:00,
2013-06-23 04:22:00,69.0,66.0,29.94,South,176,5.0,-999.0,90,-99.99,,,-99.99,,2013-06-23 09:22:00,
2013-06-23 04:34:00,69.0,66.0,29.94,South,176,5.0,-999.0,90,-99.99,,,-99.99,,2013-06-23 09:34:00,
2013-06-23 04:43:00,68.0,65.0,29.94,SSE,149,6.0,-999.0,90,-99.99,,,-99.99,,2013-06-23 09:43:00,
2013-06-23 04:53:00,69.0,66.0,29.94,South,178,6.0,-999.0,90,-99.99,,,-99.99,,2013-06-23 09:53:00,
2013-06-23 05:02:00,69.0,66.0,29.94,South,178,6.0,-999.0,90,-99.99,,,-99.99,,2013-06-23 10:02:00,
2013-06-23 05:11:00,69.0,66.0,29.96,South,179,6.0,-999.0,90,-99.99,,,-99.99,,2013-06-23 10:11:00,
2013-06-23 05:22:00,69.0,66.0,29.96,SE,146,6.0,-999.0,90,-99.99,,,-99.99,,2013-06-23 10:22:00,
2013-06-23 05:34:00,69.0,66.0,29.96,SE,146,6.0,-999.0,90,-99.99,,,-99.99,,2013-06-23 10:34:00,
2013-06-23 05:43:00,69.0,66.0,29.96,SSE,168,6.0,-999.0,89,-99.99,,,-99.99,,2013-06-23 10:43:00,
2013-06-23 05:53:00,69.0,66.0,29.97,SSE,168,5.0,-999.0,89,-99.99,,,-99.99,,2013-06-23 10:53:00,
2013-06-23 06:01:00,69.0,66.0,29.97,SSE,168,5.0,-999.0,89,-99.99,,,-99.99,,2013-06-23 11:01:00,
2013-06-23 06:11:00,69.0,65.0,29.97,SSE,160,5.0,-999.0,88,-99.99,,,-99.99,,2013-06-23 11:11:00,
2013-06-23 06:22:00,69.0,65.0,29.96,SSE,153,4.0,-999.0,88,-99.99,,,-99.99,,2013-06-23 11:22:00,
2013-06-23 06:33:00,69.0,65.0,29.96,SSE,153,4.0,-999.0,88,-99.99,,,-99.99,,2013-06-23 11:33:00,
2013-06-23 06:43:00,69.0,65.0,29.96,SSE,162,5.0,-999.0,88,-99.99,,,-99.99,,2013-06-23 11:43:00,
2013-06-23 06:53:00,69.0,65.0,29.97,SE,143,4.0,-999.0,87,-99.99,,,-99.99,,2013-06-23 11:53:00,
2013-06-23 07:01:00,69.0,65.0,29.97,SE,143,4.0,-999.0,87,-99.99,,,-99.99,,2013-06-23 12:01:00,
2013-06-23 07:12:00,69.0,65.0,29.98,SE,138,4.0,-999.0,87,-99.99,,,-99.99,,2013-06-23 12:12:00,
2013-06-23 07:22:00,69.0,65.0,29.98,SSE,159,4.0,-999.0,87,-99.99,,,-99.99,,2013-06-23 12:22:00,
2013-06-23 07:33:00,69.0,65.0,29.98,SSE,159,4.0,-999.0,87,-99.99,,,-99.99,,2013-06-23 12:33:00,
2013-06-23 07:42:00,70.0,66.0,29.97,SSE,158,5.0,-999.0,86,-99.99,,,-99.99,,2013-06-23 12:42:00,
2013-06-23 07:53:00,71.0,66.0,29.97,SSE,160,6.0,-999.0,84,-99.99,,,-99.99,,2013-06-23 12:53:00,
2013-06-23 08:02:00,71.0,66.0,29.97,SSE,160,6.0,-999.0,84,-99.99,,,-99.99,,2013-06-23 13:02:00,
2013-06-23 08:11:00,72.0,66.0,29.97,SSE,164,7.0,-999.0,82,-99.99,,,-99.99,,2013-06-23 13:11:00,
2013-06-23 08:23:00,72.0,66.0,29.97,SSE,154,6.0,-999.0,82,-99.99,,,-99.99,,2013-06-23 13:23:00,
2013-06-23 08:34:00,72.0,66.0,29.97,SSE,154,6.0,-999.0,82,-99.99,,,-99.99,,2013-06-23 13:34:00,
2013-06-23 08:43:00,73.0,67.0,29.96,SSW,194,7.0,-999.0,82,-99.99,,,-99.99,,2013-06-23 13:43:00,
2013-06-23 08:53:00,73.0,67.0,29.96,SSW,193,8.0,-999.0,81,-99.99,,,-99.99,,2013-06-23 13:53:00,
2013-06-23 09:04:00,73.0,67.0,29.96,SSW,193,8.0,-999.0,81,-99.99,,,-99.99,,2013-06-23 14:04:00,
2013-06-23 09:11:00,74.0,68.0,29.96,South,181,8.0,-999.0,81,-99.99,,,-99.99,,2013-06-23 14:11:00,
2013-06-23 09:22:00,75.0,69.0,29.96,South,174,8.0,-999.0,81,-99.99,,,-99.99,,2013-06-23 14:22:00,
2013-06-23 09:34:00,75.0,69.0,29.96,South,174,8.0,-999.0,81,-99.99,,,-99.99,,2013-06-23 14:34:00,
2013-06-23 09:44:00,76.0,69.0,29.96,South,179,9.0,-999.0,80,-99.99,,,-99.99,,2013-06-23 14:44:00,
2013-06-23 09:52:00,76.0,67.0,29.96,SW,214,8.0,-999.0,75,-99.99,,,-99.99,,2013-06-23 14:52:00,
2013-06-23 10:05:00,76.0,67.0,29.96,SW,214,8.0,-999.0,75,-99.99,,,-99.99,,2013-06-23 15:05:00,
2013-06-23 10:11:00,77.0,66.0,29.96,SSW,202,8.0,-999.0,70,-99.99,,,-99.99,,2013-06-23 15:11:00,
2013-06-23 10:23:00,78.0,66.0,29.96,SW,235,7.0,-999.0,67,-99.99,,,-99.99,,2013-06-23 15:23:00,
2013-06-23 10:35:00,78.0,66.0,29.96,SW,235,7.0,-999.0,67,-99.99,,,-99.99,,2013-06-23 15:35:00,
2013-06-23 10:43:00,77.0,66.0,29.96,SSW,204,8.0,-999.0,68,-99.99,,,-99.99,,2013-06-23 15:43:00,
2013-06-23 10:52:00,78.0,66.0,29.96,SSE,149,7.0,-999.0,66,-99.99,,,-99.99,,2013-06-23 15:52:00,
2013-06-23 11:06:00,78.0,66.0,29.96,SSE,149,7.0,-999.0,66,-99.99,,,-99.99,,2013-06-23 16:06:00,
2013-06-23 11:12:00,79.0,66.0,29.96,South,191,6.0,-999.0,64,-99.99,,,-99.99,,2013-06-23 16:12:00,
2013-06-23 11:22:00,80.0,66.0,29.96,SW,220,6.0,-999.0,62,-99.99,,,-99.99,,2013-06-23 16:22:00,
2013-06-23 11:36:00,80.0,66.0,29.96,SW,220,6.0,-999.0,62,-99.99,,,-99.99,,2013-06-23 16:36:00,
2013-06-23 11:43:00,80.0,65.0,29.96,South,179,5.0,-999.0,60,-99.99,,,-99.99,,2013-06-23 16:43:00,
2013-06-23 11:53:00,81.0,66.0,29.96,SSE,161,7.0,-999.0,60,-99.99,,,-99.99,,2013-06-23 16:53:00,
2013-06-23 12:04:00,81.0,66.0,29.96,SSE,161,7.0,-999.0,60,-99.99,,,-99.99,,2013-06-23 17:04:00,
2013-06-23 12:12:00,80.0,65.0,29.97,WSW,245,7.0,-999.0,60,-99.99,,,-99.99,,2013-06-23 17:12:00,
2013-06-23 12:33:00,80.0,68.0,29.97,South,189,5.0,-999.0,66,-99.99,,,-99.99,,2013-06-23 17:33:00,
2013-06-23 12:43:00,80.0,67.0,29.97,SSE,164,4.0,-999.0,65,-99.99,,,-99.99,,2013-06-23 17:43:00,
2013-06-23 13:01:00,80.0,67.0,29.97,SE,126,4.0,-999.0,65,-99.99,,,-99.99,,2013-06-23 18:01:00,
2013-06-23 13:12:00,79.0,68.0,29.97,SE,143,4.0,-999.0,68,-99.99,,,-99.99,,2013-06-23 18:12:00,
2013-06-23 13:34:00,79.0,69.0,29.96,SE,143,6.0,-999.0,72,-99.99,,,-99.99,,2013-06-23 18:34:00,
2013-06-23 13:42:00,80.0,69.0,29.96,South,173,7.0,-999.0,70,-99.99,,,-99.99,,2013-06-23 18:42:00,
2013-06-23 14:01:00,78.0,69.0,29.95,SSE,163,10.0,-999.0,73,-99.99,,,-99.99,,2013-06-23 19:01:00,
2013-06-23 14:11:00,78.0,69.0,29.96,SSE,156,10.0,-999.0,74,-99.99,,,-99.99,,2013-06-23 19:11:00,
2013-06-23 14:32:00,78.0,69.0,29.96,SSW,208,10.0,-999.0,75,-99.99,,,-99.99,,2013-06-23 19:32:00,
2013-06-23 14:43:00,78.0,70.0,29.94,SSE,165,11.0,-999.0,76,-99.99,,,-99.99,,2013-06-23 19:43:00,
2013-06-23 15:02:00,78.0,70.0,29.93,South,177,10.0,-999.0,77,-99.99,,,-99.99,,2013-06-23 20:02:00,
2013-06-23 15:12:00,78.0,71.0,29.93,SSE,150,10.0,-999.0,78,-99.99,,,-99.99,,2013-06-23 20:12:00,
2013-06-23 15:33:00,78.0,70.0,29.92,SE,138,10.0,-999.0,76,-99.99,,,-99.99,,2013-06-23 20:33:00,
2013-06-23 15:42:00,79.0,70.0,29.93,South,178,9.0,-999.0,75,-99.99,,,-99.99,,2013-06-23 20:42:00,
2013-06-23 16:01:00,79.0,70.0,29.93,South,178,10.0,-999.0,75,-99.99,,,-99.99,,2013-06-23 21:01:00,
2013-06-23 16:11:00,79.0,70.0,29.93,South,175,10.0,-999.0,75,-99.99,,,-99.99,,2013-06-23 21:11:00,
2013-06-23 16:34:00,79.0,70.0,29.91,South,173,9.0,-999.0,75,-99.99,,,-99.99,,2013-06-23 21:34:00,
2013-06-23 16:44:00,79.0,71.0,29.90,South,180,11.0,-999.0,76,-99.99,,,-99.99,,2013-06-23 21:44:00,
2013-06-23 16:52:00,79.0,71.0,29.90,South,180,11.0,-999.0,76,-99.99,,,-99.99,,2013-06-23 21:52:00,
2013-06-23 17:01:00,79.0,71.0,29.90,SSE,157,7.0,-999.0,77,-99.99,,,-99.99,,2013-06-23 22:01:00,
2013-06-23 17:11:00,79.0,71.0,29.91,SW,230,6.0,-999.0,77,-99.99,,,-99.99,,2013-06-23 22:11:00,
2013-06-23 17:22:00,79.0,71.0,29.91,SW,230,6.0,-999.0,77,-99.99,,,-99.99,,2013-06-23 22:22:00,
2013-06-23 17:32:00,79.0,71.0,29.92,SSE,162,5.0,-999.0,77,-99.99,,,-99.99,,2013-06-23 22:32:00,
2013-06-23 17:43:00,76.0,67.0,29.93,WNW,301,7.0,-999.0,74,-99.99,,,-99.99,,2013-06-23 22:43:00,
2013-06-23 17:53:00,76.0,67.0,29.93,WNW,301,7.0,-999.0,74,-99.99,,,-99.99,,2013-06-23 22:53:00,
2013-06-23 18:01:00,73.0,67.0,29.93,WNW,298,14.0,-999.0,81,-99.99,,,-99.99,,2013-06-23 23:01:00,
2013-06-23 18:11:00,71.0,67.0,29.93,WNW,289,4.0,-999.0,88,-99.99,,,-99.99,,2013-06-23 23:11:00,
2013-06-23 18:22:00,70.0,67.0,29.92,SW,225,1.0,-999.0,90,-99.99,,,-99.99,,2013-06-23 23:22:00,
2013-06-23 18:33:00,70.0,67.0,29.92,SW,225,1.0,-999.0,90,-99.99,,,-99.99,,2013-06-23 23:33:00,
2013-06-23 18:44:00,70.0,68.0,29.91,SW,225,2.0,-999.0,92,-99.99,,,-99.99,,2013-06-23 23:44:00,
2013-06-23 18:52:00,70.0,68.0,29.91,South,188,3.0,-999.0,93,-99.99,,,-99.99,,2013-06-23 23:52:00,
2013-06-23 19:01:00,70.0,68.0,29.91,South,188,3.0,-999.0,93,-99.99,,,-99.99,,2013-06-24 00:01:00,
2013-06-23 19:11:00,70.0,68.0,29.90,SSW,199,4.0,-999.0,94,-99.99,,,-99.99,,2013-06-24 00:11:00,
2013-06-23 19:22:00,69.0,67.0,29.89,SW,225,3.0,-999.0,94,-99.99,,,-99.99,,2013-06-24 00:22:00,
2013-06-23 19:33:00,69.0,67.0,29.89,SW,225,3.0,-999.0,94,-99.99,,,-99.99,,2013-06-24 00:33:00,
2013-06-23 19:42:00,69.0,67.0,29.88,SSW,192,5.0,-999.0,94,-99.99,,,-99.99,,2013-06-24 00:42:00,
2013-06-23 19:52:00,69.0,67.0,29.89,South,169,7.0,-999.0,94,-99.99,,,-99.99,,2013-06-24 00:52:00,
2013-06-23 20:02:00,69.0,67.0,29.89,South,169,7.0,-999.0,94,-99.99,,,-99.99,,2013-06-24 01:02:00,
2013-06-23 20:11:00,69.0,67.0,29.90,SSW,194,6.0,-999.0,93,-99.99,,,-99.99,,2013-06-24 01:11:00,
2013-06-23 20:22:00,68.0,66.0,29.90,South,177,8.0,-999.0,92,-99.99,,,-99.99,,2013-06-24 01:22:00,
2013-06-23 20:32:00,68.0,66.0,29.90,South,177,8.0,-999.0,92,-99.99,,,-99.99,,2013-06-24 01:32:00,
2013-06-23 20:42:00,69.0,65.0,29.85,SSW,193,11.0,-999.0,88,-99.99,,,-99.99,,2013-06-24 01:42:00,
2013-06-23 20:53:00,69.0,65.0,29.85,NNW,346,11.0,-999.0,87,-99.99,,,-99.99,,2013-06-24 01:53:00,
2013-06-23 21:02:00,69.0,65.0,29.85,NNW,346,11.0,-999.0,87,-99.99,,,-99.99,,2013-06-24 02:02:00,
2013-06-23 21:11:00,70.0,64.0,29.91,NW,310,4.0,-999.0,82,-99.99,,,-99.99,,2013-06-24 02:11:00,
2013-06-23 21:22:00,70.0,65.0,29.91,NW,304,2.0,-999.0,85,-99.99,,,-99.99,,2013-06-24 02:22:00,
2013-06-23 21:33:00,70.0,65.0,29.91,NW,304,2.0,-999.0,85,-99.99,,,-99.99,,2013-06-24 02:33:00,
2013-06-23 21:42:00,69.0,65.0,29.93,WSW,240,1.0,-999.0,86,-99.99,,,-99.99,,2013-06-24 02:42:00,
2013-06-23 21:53:00,69.0,64.0,29.93,WSW,240,0.0,-999.0,85,-99.99,,,-99.99,,2013-06-24 02:53:00,
2013-06-23 22:01:00,69.0,64.0,29.93,WSW,240,0.0,-999.0,85,-99.99,,,-99.99,,2013-06-24 03:01:00,
2013-06-23 22:11:00,69.0,65.0,29.94,SE,129,1.0,-999.0,88,-99.99,,,-99.99,,2013-06-24 03:11:00,
2013-06-23 22:22:00,69.0,65.0,29.94,SE,129,0.0,-999.0,88,-99.99,,,-99.99,,2013-06-24 03:22:00,
2013-06-23 22:33:00,69.0,65.0,29.94,SE,129,0.0,-999.0,88,-99.99,,,-99.99,,2013-06-24 03:33:00,
2013-06-23 22:43:00,68.0,65.0,29.94,West,274,0.0,-999.0,90,-99.99,,,-99.99,,2013-06-24 03:43:00,
2013-06-23 22:53:00,68.0,65.0,29.95,West,274,0.0,-999.0,90,-99.99,,,-99.99,,2013-06-24 03:53:00,
2013-06-23 23:02:00,68.0,65.0,29.95,West,274,0.0,-999.0,90,-99.99,,,-99.99,,2013-06-24 04:02:00,
2013-06-23 23:12:00,69.0,66.0,29.95,West,274,0.0,-999.0,90,-99.99,,,-99.99,,2013-06-24 04:12:00,
2013-06-23 23:22:00,69.0,66.0,29.95,West,274,0.0,-999.0,90,-99.99,,,-99.99,,2013-06-24 04:22:00,
2013-06-23 23:33:00,68.0,65.0,29.95,West,274,0.0,-999.0,90,-99.99,,,-99.99,,2013-06-24 04:33:00,
2013-06-23 23:43:00,68.0,65.0,29.95,West,274,0.0,-999.0,90,-99.99,,,-99.99,,2013-06-24 04:43:00,
2013-06-23 23:52:00,68.0,65.0,29.96,West,274,0.0,-999.0,91,-99.99,,,-99.99,,2013-06-24 04:52:00,